Location: Foligno
(42.9600°N, 12.7050°E)
Time: 16:34:37
(UTC+02:00)

ISS - Pass Details

Date: 14 October 2018
Orbit: 403 x 408 km, 51.6° (Epoch: 20 October)

Event Time Altitude Azimuth Distance (km) Brightness Sun altitude
Rises 19:04:21 0° 293° (WNW) 2,336 1.3 -7.3°
Reaches altitude 10° 19:06:46 10° 276° (W) 1,471 0.6 -7.8°
Maximum altitude 19:09:18 21° 225° (SW) 982 -1.2 -8.2°
Drops below altitude 10° 19:11:51 10° 175° (S) 1,462 -1.0 -8.7°
Sets 19:14:14 0° 158° (SSE) 2,316 -0.2 -9.1°
